TimeEST,TemperatureF,Dew PointF,Humidity,Sea Level PressureIn,VisibilityMPH,Wind Direction,Wind SpeedMPH,Gust SpeedMPH,PrecipitationIn,Events,Conditions,WindDirDegrees,DateUTC
12:52 AM,48.9,48.0,97,29.95,0.2,SW,3.5,-,0.00,,Light Drizzle,230,2012-12-25 05:52:00
1:52 AM,48.0,48.0,100,29.96,0.2,West,6.9,-,0.00,,Overcast,280,2012-12-25 06:52:00
2:52 AM,48.0,46.9,96,29.97,3.0,West,4.6,-,0.00,,Light Drizzle,260,2012-12-25 07:52:00
3:52 AM,46.9,46.9,100,29.98,1.2,Calm,Calm,-,0.00,,Light Drizzle,0,2012-12-25 08:52:00
4:52 AM,46.9,46.0,97,29.99,1.2,NNE,3.5,-,0.00,,Light Drizzle,30,2012-12-25 09:52:00
5:16 AM,46.4,46.4,100,29.99,3.0,East,3.5,-,0.00,,Overcast,90,2012-12-25 10:16:00
5:20 AM,46.4,46.4,100,29.99,1.0,ENE,3.5,-,0.00,,Overcast,60,2012-12-25 10:20:00
5:52 AM,46.9,46.0,97,30.00,3.0,NNE,4.6,-,0.00,,Overcast,30,2012-12-25 10:52:00
6:32 AM,46.4,44.6,93,30.02,3.0,Calm,Calm,-,N/A,,Overcast,0,2012-12-25 11:32:00
6:52 AM,46.9,45.0,93,30.04,3.0,ENE,3.5,-,N/A,,Overcast,60,2012-12-25 11:52:00
7:44 AM,46.4,44.6,93,30.07,10.0,NE,4.6,-,N/A,,Overcast,50,2012-12-25 12:44:00
7:52 AM,46.9,44.1,90,30.07,10.0,NNE,3.5,-,N/A,,Overcast,30,2012-12-25 12:52:00
8:52 AM,46.9,44.1,90,30.07,7.0,ENE,8.1,-,N/A,,Overcast,60,2012-12-25 13:52:00
9:52 AM,48.0,43.0,83,30.09,7.0,Variable,3.5,-,N/A,,Mostly Cloudy,0,2012-12-25 14:52:00
10:06 AM,51.8,44.6,76,30.10,7.0,NE,3.5,-,N/A,,Mostly Cloudy,50,2012-12-25 15:06:00
10:52 AM,51.1,45.0,80,30.10,7.0,Calm,Calm,-,N/A,,Mostly Cloudy,0,2012-12-25 15:52:00
11:52 AM,54.0,43.0,66,30.07,8.0,East,5.8,-,N/A,,Mostly Cloudy,80,2012-12-25 16:52:00
12:52 PM,55.9,42.1,60,30.04,8.0,East,4.6,-,N/A,,Overcast,100,2012-12-25 17:52:00
1:52 PM,55.9,39.9,55,30.05,9.0,Calm,Calm,-,N/A,,Overcast,0,2012-12-25 18:52:00
2:52 PM,55.9,39.9,55,30.03,9.0,East,4.6,-,N/A,,Overcast,100,2012-12-25 19:52:00
3:52 PM,55.9,41.0,57,30.04,9.0,NE,6.9,-,N/A,,Overcast,50,2012-12-25 20:52:00
4:52 PM,53.1,44.1,71,30.03,7.0,NNE,4.6,-,N/A,,Overcast,20,2012-12-25 21:52:00
5:52 PM,50.0,44.1,80,30.04,8.0,NNE,3.5,-,N/A,,Overcast,20,2012-12-25 22:52:00
6:52 PM,51.1,44.1,77,30.06,7.0,NNE,4.6,-,N/A,,Overcast,30,2012-12-25 23:52:00
7:52 PM,51.1,44.1,77,30.02,7.0,ENE,6.9,-,N/A,,Overcast,70,2012-12-26 00:52:00
8:52 PM,52.0,44.1,74,30.02,8.0,East,9.2,-,N/A,,Overcast,100,2012-12-26 01:52:00
9:52 PM,52.0,44.1,74,30.00,8.0,East,6.9,-,0.00,,Overcast,100,2012-12-26 02:52:00
10:52 PM,52.0,45.0,77,29.99,8.0,East,5.8,-,0.00,,Overcast,100,2012-12-26 03:52:00
11:52 PM,52.0,46.0,80,29.97,7.0,East,9.2,-,N/A,,Overcast,80,2012-12-26 04:52:00